Home   Weather   Kitchener   Past weeks

Flag for Canada Past Weather in Kitchener, Ontario, Canada — Yesterday and Last 2 Weeks

Now
37 °F

Light rain. Fog.


Feels Like: 34 °F
Forecast: 38 / 41 °F
Wind: 5 mph from Northeast

Location: Waterloo Well

Current Time: Jan 21, 2017 at 10:47:26 pm

Latest Report: Jan 21, 2017 at 10:00 pm


Visibility: 0 mi

Pressure: 29.70 "Hg

Humidity: 93%

Dew Point: 36 °F

Location of KitchenerLocation

Past Weather in Kitchener — Graph

°F

Kitchener Temperature Yesterday

Maximum temperature yesterday: 36 °F (at 12:39 pm)
Minimum temperature yesterday: 30 °F (at 12:00 am)
Average temperature yesterday: 34 °F

High & Low Weather Summary for the Past Weeks

 TemperatureHumidityPressure
High48 °F (Jan 12, 2:41 am)100% (Jan 10, 7:28 am)30.78 "Hg (Jan 10, 7:28 am)
Low3 °F (Jan 7, 8:00 am)41% (Jan 16, 3:00 pm)29.44 "Hg (Jan 10, 11:29 pm)
Average28 °F87%30.10 "Hg
* Reported Jan 6 9:00 pm — Jan 21 9:30 pm, Kitchener, Weather by CustomWeather, © 2017

Note: Actual official high and low records may vary slightly from our data, if they occured in-between our weather recording intervals... More about our weather records

Advertising

Kitchener Weather History for the Previous 24 Hours

Scroll right to see more
 ConditionsComfort  
Time TempWeatherWind HumidityBarometerVisibility
9:30 pm
Sat, Jan 21
37 °FLight rain. Fog.5 mph93%29.72 "Hg0 mi
9:00 pm37 °FFog.3 mph93%29.72 "Hg1 mi
8:00 pm37 °FFog.5 mph100%29.73 "Hg1 mi
7:51 pm37 °FFog.6 mph100%29.73 "Hg1 mi
7:00 pm37 °FLight rain. Fog.5 mph100%29.72 "Hg0 mi
6:00 pm39 °FLight rain. Fog.6 mph100%29.71 "Hg0 mi
5:50 pm39 °FLight rain. Fog.6 mph100%29.71 "Hg0 mi
5:26 pm41 °FLight rain. Fog.7 mph93%29.71 "Hg0 mi
5:00 pm41 °FLight rain. Fog.5 mph100%29.70 "Hg0 mi
4:07 pm43 °FLight rain. Fog.6 mph100%29.71 "Hg0 mi
3:29 pm45 °FFog.6 mph93%29.71 "Hg1 mi
3:00 pm43 °FFog.8 mph100%29.70 "Hg1 mi
2:31 pm45 °FFog.5 mph93%29.70 "Hg0 mi
2:02 pm43 °FLight rain. Fog.6 mph100%29.70 "Hg0 mi
1:18 pm45 °FLight rain. Fog.7 mph93%29.70 "Hg0 mi
1:00 pm45 °FLight rain. Fog.6 mph93%29.71 "Hg0 mi
12:56 pm43 °FLight rain. Fog.7 mph100%29.71 "Hg0 mi
12:39 pm43 °FFog.7 mph100%29.72 "Hg1 mi
12:11 pm43 °FFog.7 mph100%29.73 "Hg1 mi
12:00 pm43 °FFog.7 mph93%29.74 "Hg0 mi
11:00 am39 °FFog.3 mph100%29.78 "Hg0 mi
10:31 am37 °FLight rain. Fog.5 mph100%29.77 "Hg0 mi
10:00 am37 °FLight rain. Fog.5 mph100%29.78 "Hg0 mi
9:40 am37 °FFog.5 mph100%29.78 "Hg1 mi
9:07 am37 °FFog.3 mph93%29.79 "Hg2 mi
8:12 am36 °FFog.No wind100%29.80 "Hg0 mi
7:42 am36 °FFog.3 mph93%29.79 "Hg0 mi
7:25 am36 °FLight rain. Fog.3 mph93%29.80 "Hg0 mi
7:00 am34 °FLight rain. Fog.3 mph100%29.80 "Hg0 mi
6:36 am36 °FLight rain. Fog.No wind100%29.79 "Hg0 mi
6:02 am36 °FFog.3 mph100%29.80 "Hg0 mi
5:23 am36 °FLight rain. Fog.7 mph100%29.80 "Hg0 mi
5:00 am36 °FFog.3 mph100%29.79 "Hg1 mi
4:38 am36 °FFog.2 mph100%29.78 "Hg1 mi
4:00 am37 °FFog.2 mph93%29.80 "Hg1 mi
3:00 am36 °FFog.3 mph100%29.81 "Hg1 mi
2:36 am37 °FFog.5 mph93%29.80 "Hg2 mi
2:14 am37 °FFog.7 mph100%29.80 "Hg2 mi
2:03 am37 °FFog.6 mph93%29.80 "Hg4 mi
1:41 am36 °FFog.2 mph100%29.79 "Hg3 mi
1:00 am36 °FFog.6 mph100%29.78 "Hg3 mi
12:20 am36 °FFog.8 mph100%29.78 "Hg3 mi
12:00 am36 °FFog.6 mph100%29.78 "Hg2 mi
11:57 pm
Fri, Jan 20
36 °FFog.7 mph100%29.78 "Hg2 mi
11:21 pm36 °FLight rain. Fog.6 mph100%29.78 "Hg0 mi
11:00 pm36 °FFog.5 mph100%29.77 "Hg0 mi
10:15 pm36 °FFog.3 mph93%29.75 "Hg0 mi
10:00 pm36 °FLight rain. Fog.2 mph93%29.75 "Hg0 mi
Weather by CustomWeather, © 2017

See weather overviewHow to use our weather pages